This demonstration page uses our WeatherBlox Daily Observations layout. Learn more.

Left ArrowRight Arrow

38.89511, -77.03637

Hourly Observations for October 16, 2021

Temp ( °F °C ) Dew Point ( °F °C ) Humidity (%) Winds ( mph kmh ) Pressure ( in mb ) Visibility ( mi km ) Precip ( " mm )
12:52 am 00:52 Mostly Cloudy 70 21.1 63 17.2 79 79 S 8 13 29.86 1011 10 16 N/A
1:52 am 01:52 Partly Cloudy 69 20.6 62 16.7 78 78 S 10 17 29.84 1010 10 16 N/A
2:52 am 02:52 Partly Cloudy 69 20.6 61 16.1 76 76 S 10 17 29.81 1010 10 16 N/A
3:52 am 03:52 Mostly Clear 67 19.4 62 16.7 84 84 S 8 13 29.79 1009 10 16 N/A
4:52 am 04:52 Mostly Clear 67 19.4 62 16.7 84 84 S 10 17 29.79 1009 10 16 N/A
5:52 am 05:52 Mostly Clear 69 20.6 62 16.7 78 78 S 14 22 29.77 1008 10 16 N/A
6:52 am 06:52 Mostly Cloudy 68 20 61 16.1 78 78 S 12 19 29.76 1008 10 16 N/A
7:52 am 07:52 Mostly Cloudy 68 20 62 16.7 81 81 S 13 20 29.75 1008 10 16 N/A
8:52 am 08:52 Mostly Cloudy 69 20.6 62 16.7 78 78 S 16 26 29.75 1008 10 16 N/A
9:52 am 09:52 Mostly Cloudy 72 22.2 63 17.2 73 73 S 12 19 29.75 1008 10 16 N/A
10:52 am 10:52 Mostly Cloudy 74 23.3 63 17.2 69 69 S 12 19 29.73 1007 10 16 N/A
11:52 am 11:52 Sunny 77 25 65 18.3 66 66 S 14 22 29.70 1006 10 16 N/A
12:52 pm 12:52 Mostly Cloudy 78 25.6 64 17.8 62 62 SSW 17 28 29.68 1005 10 16 N/A
1:52 pm 13:52 Mostly Cloudy 81 27.2 65 18.3 58 58 SW 14 22 29.65 1004 10 16 N/A
2:15 pm 14:15 Cloudy 75 23.9 57 13.9 54 54 WNW 22 35 29.68 1005 10 16 N/A
2:52 pm 14:52 Cloudy 70 21.1 59 15 68 68 NW 18 30 29.70 1006 10 16 0.00 0.00
3:31 pm 15:31 Cloudy with Rain 66 18.9 60 15.6 81 81 WNW 18 30 29.73 1007 3 4 0.05 1.27
3:45 pm 15:45 Cloudy with Heavy Rain 65 18.3 59 15 81 81 NW 13 20 29.74 1007 3 5 0.09 2.29
3:52 pm 15:52 Cloudy with Rain 65 18.3 59 15 81 81 NW 13 20 29.74 1007 3 4 0.13 3.30
4:52 pm 16:52 Cloudy with Light Rain 64 17.8 60 15.6 87 87 NNW 7 11 29.74 1007 3 5 0.15 3.81
5:52 pm 17:52 Cloudy with Light Rain 65 18.3 60 15.6 84 84 WNW 6 9 29.78 1008 10 16 0.02 0.51
6:52 pm 18:52 Cloudy 64 17.8 52 11.1 65 65 NW 17 28 29.82 1010 10 16 0.00 0.00
7:52 pm 19:52 Mostly Cloudy 62 16.7 50 10 65 65 NW 13 20 29.86 1011 10 16 N/A
8:52 pm 20:52 Partly Cloudy 61 16.1 49 9.4 65 65 NW 10 17 29.88 1012 10 16 N/A
9:52 pm 21:52 Mostly Clear 60 15.6 48 8.9 65 65 NW 5 7 29.91 1013 10 16 N/A
10:52 pm 22:52 Partly Cloudy 59 15 48 8.9 67 67 WNW 8 13 29.93 1013 10 16 N/A
11:52 pm 23:52 Partly Cloudy 57 13.9 47 8.3 69 69 W 7 11 29.93 1014 10 16 N/A

Powered by AerisWeather